sat.trackr.live / text

‹ back to catalog

STARLINK-6073

NORAD 56807 · 2023-078AS

PAYLOAD ACTIVE UNKNOWN

§ Identity

Operator
Country
US
Launch date
2023-05-31
Launch site
AFWTR
Launch vehicle
Mass (kg)
RCS (m²)

Purposes: comms

External: N2YO · Heavens-Above · Gunter

§ Orbital elements

Epoch: 2026-05-25T02:27:19.114848Z

Period
96.11 min
Inclination
70.0001°
Eccentricity
0.0003865
Mean motion
14.98328304 rev/d
Perigee alt
569.4 km
Apogee alt
574.7 km
Semi-major
6,950.2 km
B*
2.9727e-5
RAAN
131.6204°
Arg perigee
263.8359°
Mean anomaly
96.2360°
Rev number
16,461

§ Raw data

STARLINK-60731 56807U 23078AS  26145.10230457  .00000262  00000+0  29727-4 0  99962 56807  70.0001 131.6204 0003865 263.8359  96.2360 14.98328304164617

JSON: /api/v1/satellites/56807 · /tle

For live sub-satellite position, see the globe view (requires WebGL).

§ Visibility from observer

Set your observer location to see the next 7 days of passes ≥ 10°. The values pass through the URL so the page stays shareable.

No JS? Fill the form by hand. The geolocation button needs JavaScript.